sat.trackr.live / text

‹ back to catalog

STARLINK-11430 [DTC]

NORAD 62916 · 2025-027K

PAYLOAD ACTIVE UNKNOWN

§ Identity

Operator
Country
US
Launch date
2025-02-08
Launch site
AFETR
Launch vehicle
Mass (kg)
RCS (m²)

Purposes: comms

External: N2YO · Heavens-Above · Gunter

§ Orbital elements

Epoch: 2026-05-24T15:31:24.342528Z

Period
91.67 min
Inclination
42.9974°
Eccentricity
0.0003226
Mean motion
15.70910006 rev/d
Perigee alt
354.1 km
Apogee alt
358.5 km
Semi-major
6,734.4 km
B*
1.2654e-3
RAAN
250.2237°
Arg perigee
279.0023°
Mean anomaly
81.0480°
Rev number
7,513

§ Raw data

STARLINK-11430 [DTC]1 62916U 25027K   26144.64680952  .00165711  00000+0  12654-2 0  99972 62916  42.9974 250.2237 0003226 279.0023  81.0480 15.70910006 75134

JSON: /api/v1/satellites/62916 · /tle

For live sub-satellite position, see the globe view (requires WebGL).

§ Visibility from observer

Set your observer location to see the next 7 days of passes ≥ 10°. The values pass through the URL so the page stays shareable.

No JS? Fill the form by hand. The geolocation button needs JavaScript.